TimeCST,TemperatureF,Dew PointF,Humidity,Sea Level PressureIn,VisibilityMPH,Wind Direction,Wind SpeedMPH,Gust SpeedMPH,PrecipitationIn,Events,Conditions,WindDirDegrees,DateUTC
12:52 AM,33.1,25.0,72,30.28,10.0,SSW,12.7,-,N/A,,Clear,200,2012-12-31 06:52:00
1:52 AM,34.0,25.0,70,30.28,10.0,South,9.2,-,N/A,,Clear,190,2012-12-31 07:52:00
2:52 AM,35.1,25.0,67,30.30,10.0,SSW,11.5,-,N/A,,Clear,210,2012-12-31 08:52:00
3:52 AM,35.1,26.1,70,30.28,10.0,South,6.9,-,N/A,,Mostly Cloudy,190,2012-12-31 09:52:00
4:52 AM,35.1,26.1,70,30.28,10.0,SSW,6.9,-,N/A,,Mostly Cloudy,200,2012-12-31 10:52:00
5:52 AM,35.1,26.1,70,30.27,10.0,South,8.1,-,N/A,,Overcast,190,2012-12-31 11:52:00
6:52 AM,35.1,26.1,70,30.24,10.0,South,11.5,-,N/A,,Overcast,190,2012-12-31 12:52:00
7:52 AM,35.1,27.0,72,30.22,10.0,South,8.1,-,N/A,,Overcast,190,2012-12-31 13:52:00
8:52 AM,35.1,28.0,76,30.24,10.0,SSW,8.1,-,0.00,,Overcast,210,2012-12-31 14:52:00
9:52 AM,35.1,28.9,78,30.23,8.0,SW,9.2,-,N/A,,Overcast,220,2012-12-31 15:52:00
10:22 AM,35.6,30.2,81,30.23,8.0,SW,10.4,-,0.00,Rain,Light Rain,220,2012-12-31 16:22:00
10:47 AM,33.8,30.2,87,30.23,1.8,SSW,8.1,-,0.01,Snow,Light Snow,210,2012-12-31 16:47:00
10:52 AM,34.0,30.0,85,30.24,1.2,SSW,9.2,-,0.01,Snow,Light Snow,210,2012-12-31 16:52:00
11:16 AM,33.8,30.2,87,30.21,1.5,SSW,9.2,-,0.01,Snow,Light Snow,210,2012-12-31 17:16:00
11:28 AM,33.8,30.2,87,30.19,3.0,SSW,9.2,-,0.01,Snow,Light Snow,200,2012-12-31 17:28:00
11:37 AM,33.8,30.2,87,30.19,7.0,SSW,8.1,-,0.01,,Overcast,210,2012-12-31 17:37:00
11:52 AM,35.1,30.9,85,30.18,9.0,SSW,4.6,-,0.01,,Overcast,210,2012-12-31 17:52:00
12:52 PM,36.0,32.0,86,30.16,9.0,SSW,6.9,-,N/A,,Overcast,210,2012-12-31 18:52:00
1:10 PM,35.6,32.0,87,30.14,8.0,SSW,6.9,-,0.00,Rain,Light Rain,210,2012-12-31 19:10:00
1:52 PM,35.1,32.0,89,30.15,4.0,South,8.1,-,0.01,Snow,Light Snow,190,2012-12-31 19:52:00
2:52 PM,34.0,30.9,89,30.15,5.0,South,4.6,-,0.00,,Overcast,190,2012-12-31 20:52:00
3:13 PM,33.8,32.0,93,30.13,4.0,South,3.5,-,0.01,Rain,Light Rain,190,2012-12-31 21:13:00
3:52 PM,34.0,30.9,89,30.13,5.0,Calm,Calm,-,0.02,Rain,Light Rain,0,2012-12-31 21:52:00
5:52 PM,34.0,32.0,92,30.13,5.0,South,3.5,-,0.01,,Overcast,190,2012-12-31 23:52:00
6:24 PM,33.8,32.0,93,30.11,4.0,South,3.5,-,0.00,Rain,Light Rain,170,2013-01-01 00:24:00
6:52 PM,34.0,32.0,92,30.12,4.0,Calm,Calm,-,0.00,Rain,Light Rain,0,2013-01-01 00:52:00
7:32 PM,33.8,32.0,93,30.09,2.5,Calm,Calm,-,0.02,Rain,Light Rain,0,2013-01-01 01:32:00
7:52 PM,34.0,32.0,92,30.10,3.0,Calm,Calm,-,0.03,Rain,Light Rain,0,2013-01-01 01:52:00
8:03 PM,33.8,32.0,93,30.09,2.5,Calm,Calm,-,0.01,Rain,Light Rain,0,2013-01-01 02:03:00
8:24 PM,33.8,30.2,87,30.08,1.5,East,3.5,-,0.02,Rain,Light Rain,90,2013-01-01 02:24:00
8:32 PM,33.8,32.0,93,30.08,2.0,Calm,Calm,-,0.02,Rain,Light Rain,0,2013-01-01 02:32:00
8:52 PM,34.0,32.0,92,30.09,2.0,Calm,Calm,-,0.02,,Overcast,0,2013-01-01 02:52:00
9:00 PM,33.8,32.0,93,30.08,1.8,Calm,Calm,-,N/A,,Overcast,0,2013-01-01 03:00:00
9:27 PM,33.8,32.0,93,30.08,1.8,Calm,Calm,-,N/A,,Overcast,0,2013-01-01 03:27:00
9:36 PM,33.8,32.0,93,30.08,1.0,Calm,Calm,-,N/A,,Overcast,0,2013-01-01 03:36:00
9:44 PM,33.8,32.0,93,30.08,0.8,Calm,Calm,-,N/A,,Overcast,0,2013-01-01 03:44:00
9:52 PM,34.0,32.0,92,30.09,0.8,Calm,Calm,-,N/A,,Overcast,0,2013-01-01 03:52:00
10:17 PM,33.8,32.0,93,30.09,0.5,Calm,Calm,-,N/A,Fog,Fog,0,2013-01-01 04:17:00
10:52 PM,33.1,32.0,96,30.10,0.5,Calm,Calm,-,N/A,Fog,Fog,0,2013-01-01 04:52:00
11:09 PM,33.8,32.0,93,30.09,0.5,Calm,Calm,-,N/A,Fog,Fog,0,2013-01-01 05:09:00
11:50 PM,33.8,32.0,93,30.08,0.5,Calm,Calm,-,0.01,Fog,Fog,0,2013-01-01 05:50:00
11:52 PM,33.1,32.0,96,30.10,0.5,Calm,Calm,-,0.01,Fog,Fog,0,2013-01-01 05:52:00